This demonstration page uses our WeatherBlox Daily Observations layout. Learn more.

39.92423, -83.80882

Hourly Observations for August 3, 2017

Temp ( °F °C ) Dew Point ( °F °C ) Humidity (%) Winds ( mph kmh ) Pressure ( in mb ) Visibility ( mi km ) Precip ( " mm )
12:56 am 00:56 Clear 65 18.3 64 17.8 97 97 ENE 5 7 30.06 1018 10 16.0934 0 0
1:56 am 01:56 Clear 66 18.9 65 18.3 96 96 Calm 30.07 1018 10 16.0934 0 0
2:56 am 02:56 Clear 67 19.4 65 18.3 93 93 Calm 30.06 1018 10 16.0934 0 0
3:56 am 03:56 Clear 64 17.8 63 17.2 96 96 SE 3 6 30.06 1018 7 11.26538 0 0
4:56 am 04:56 Mostly Clear with Mist and Fog 65 18.3 64 17.8 97 97 S 5 7 30.06 1018 6 9.65604 0 0
5:56 am 05:56 Mostly Clear with Mist and Fog 63 17.2 63 17.2 100 100 S 6 9 30.07 1018 4 6.43736 0 0
6:56 am 06:56 Partly Cloudy with Mist and Fog 64 17.8 63 17.2 96 96 S 3 6 30.08 1019 5 8.0467 0 0
7:56 am 07:56 Partly Cloudy with Mist and Fog 66 18.9 65 18.3 96 96 SSW 7 11 30.09 1019 6 9.65604 0 0
8:56 am 08:56 Sunny 70 21.1 67 19.4 90 90 SSW 3 6 30.09 1019 10 16.0934 0 0
9:56 am 09:56 Sunny 73 22.8 68 20 84 84 SW 6 9 30.1 1019 10 16.0934 0 0
10:56 am 10:56 Sunny 76 24.4 69 20.6 79 79 S 3 6 30.09 1019 10 16.0934 0 0
11:56 am 11:56 Sunny 79 26.1 70 21.1 74 74 S 7 11 30.08 1019 10 16.0934 0 0
12:56 pm 12:56 Sunny 80 26.7 69 20.6 69 69 S 8 13 30.06 1018 10 16.0934 0 0
1:56 pm 13:56 Sunny 82 27.8 68 20 63 63 VRB 7 11 30.04 1017 10 16.0934 0 0
2:56 pm 14:56 Sunny 83 28.3 69 20.6 63 63 SW 9 15 30.01 1016 10 16.0934 0 0
3:56 pm 15:56 Sunny 82 27.8 67 19.4 60 60 SSW 9 15 29.99 1016 10 16.0934 0 0
4:56 pm 16:56 Sunny 83 28.3 68 20 61 61 SSW 7 11 29.98 1015 10 16.0934 0 0
5:56 pm 17:56 Sunny 83 28.3 67 19.4 59 59 SW 10 17 29.97 1015 10 16.0934 0 0
6:56 pm 18:56 Sunny 80 26.7 67 19.4 64 64 S 6 9 29.97 1015 10 16.0934 0 0
7:31 pm 19:31 Partly Cloudy with Nearby Thunderstorms 81 27 68 20 66 66 S 5 7 29.94 1014 10 16.0934 0 0
7:53 pm 19:53 Partly Cloudy with Nearby Thunderstorms 79 26 66 19 65 65 S 13 20 29.94 1014 10 16.0934 0 0
7:56 pm 19:56 Partly Cloudy with Nearby Thunderstorms 79 26.1 67 19.4 67 67 S 8 13 29.97 1015 10 16.0934 0 0
8:19 pm 20:19 Partly Cloudy with Thunderstorms 75 24 63 17 65 65 S 14 22 29.97 1015 8 12.87472 0 0
8:56 pm 20:56 Windy with Storms Likely 69 20.6 62 16.7 78 78 SSE 22 35 29.98 1015 7 11.26538 0 0.0254
9:26 pm 21:26 Clear 70 21 64 18 83 83 S 3 6 29.97 1015 10 16.0934 0 0.0254
9:56 pm 21:56 Clear 68 20 65 18.3 90 90 S 5 7 29.98 1015 10 16.0934 0 0.0254
10:56 pm 22:56 Clear 68 20 65 18.3 90 90 SSE 6 9 29.98 1015 10 16.0934 0 0
11:56 pm 23:56 Clear 68 20 66 18.9 93 93 S 5 7 29.96 1014 10 16.0934 0 0

Powered by AerisWeather